This is the latest recevied weather packets stored in our database for station/object YO3FVR-WX. If no packets are shown the sender has not sent any weather packets the latest 10 day(s).
| Time | Temp. | Humidity | Pressure | Rain* | Wind** | Luminosity | Snow |
|---|---|---|---|---|---|---|---|
| 1777747363 | 10.56° C | 67% | 1017.9 hPa | 0 mm | - | - | - |
| 1777746135 | 10.56° C | 66% | 1017.6 hPa | 0 mm | - | - | - |
| 1777744933 | 11.11° C | 64% | 1017.3 hPa | 0 mm | - | - | - |
| 1777743703 | 11.67° C | 63% | 1017.1 hPa | 0 mm | - | - | - |
| 1777742474 | 11.67° C | 58% | 1017.1 hPa | 0 mm | - | - | - |
| 1777741246 | 12.78° C | 53% | 1016.6 hPa | 0 mm | - | - | - |
| 1777740013 | 12.78° C | 50% | 1016.6 hPa | 0 mm | - | - | - |
| 1777738812 | 12.78° C | 51% | 1016.6 hPa | 0 mm | - | - | - |
| 1777737585 | 13.33° C | 54% | 1016.7 hPa | 0 mm | - | - | - |
| 1777736384 | 13.33° C | 57% | 1016.6 hPa | 0 mm | - | - | - |
| 1777735155 | 13.89° C | 58% | 1016.8 hPa | 0 mm | - | - | - |
| 1777733954 | 13.33° C | 58% | 1016.8 hPa | 0 mm | - | - | - |
| 1777732754 | 13.33° C | 57% | 1016.9 hPa | 0 mm | - | - | - |
| 1777731524 | 13.89° C | 55% | 1017 hPa | 0 mm | - | - | - |
| 1777730324 | 14.44° C | 55% | 1017.3 hPa | 0 mm | - | - | - |
| 1777729098 | 13.33° C | 54% | 1017.3 hPa | 0 mm | - | - | - |
| 1777727863 | 13.33° C | 54% | 1017.3 hPa | 0 mm | - | - | - |
| 1777726640 | 13.33° C | 62% | 1017.6 hPa | 0 mm | - | - | - |
| 1777725411 | 13.33° C | 62% | 1017.6 hPa | 0 mm | - | - | - |
| 1777724209 | 13.33° C | 62% | 1017.6 hPa | 0 mm | - | - | - |
| 1777723006 | 13.33° C | 62% | 1017.6 hPa | 0.25 mm | - | - | - |
| 1777721805 | 13.33° C | 62% | 1018 hPa | 0.25 mm | - | - | - |
| 1777720604 | 11.11° C | 62% | 1018 hPa | 0.25 mm | - | - | - |
| 1777719403 | 10.56° C | 62% | 1018.1 hPa | 0 mm | - | - | - |
| 1777718173 | 12.22° C | 57% | 1018.2 hPa | 0 mm | - | - | - |
* Rain latest hour (hover to see other rain measurements)
** Current wind speed in m/s (hover to see current wind gust speed)